Location: Gilevgi
(36.8751°N, 30.0581°E)
Time: 20:36:02
(UTC+00:00)

SL-16 R/B - Pass Details

Date: 11 December 2025
Orbit: 841 x 845 km, 71.0° (Epoch: 12 January)

Event Time Altitude Azimuth Distance (km) Brightness Sun altitude
Rises 16:08:22 0° 163° (SSE) 3,380 5.3 -16.5°
Reaches altitude 10° 16:11:21 10° 148° (SSE) 2,451 4.4 -17.0°
Enters shadow 16:14:32 20° 114° (ESE) 1,837 3.5 -17.7°
